Location: Gand�
(15.0971°N, 12.6564°W)
Time: 14:16:35
(UTC+00:00)

ASTRO F (AKARI) - Pass Details

Date: 07 August 2020
Orbit: 399 x 525 km, 98.2° (Epoch: 20 September)

Event Time Altitude Azimuth Distance (km) Brightness Sun altitude
Rises 05:04:26 0° 15° (NNE) 2,299 8.6 -21.2°
Reaches altitude 10° 05:06:24 10° 18° (NNE) 1,441 7.5 -20.8°
Maximum altitude 05:09:27 67° 102° (ESE) 436 4.4 -20.1°
Enters shadow 05:09:52 57° 151° (SSE) 477 4.4 -20.0°
